Stratford, CT

7:13 PM EST on February 27, 2017 (GMT -0500)
Sikorsky Memorial

Weather History for KBDR - January, 2013

Change the Weather History Date:

Sunday, January 6, 2013

  Actual Average Record
Temperature  
Mean Temperature 37 °F 30 °F  
Max Temperature 43 °F 37 °F 68 °F (2007)
Min Temperature 30 °F 23 °F 2 °F (1996)
Degree Days  
Heating Degree Days 28 35  
Month to date heating degree days 201 206  
Since 1 July heating degree days 1897 2099  
Cooling Degree Days 0 0  
Month to date cooling degree days 0 0  
Year to date cooling degree days 0 0  
Moisture  
Dew Point 30 °F    
Average Humidity 77    
Maximum Humidity 89    
Minimum Humidity 64    
Precipitation  
Precipitation T in 0.10 in 2.19 in (1962)
Month to date precipitation T 0.62  
Year to date precipitation T 0.62  
Snow  
Snow T in 0.30 in 3.00 in (2005)
Month to date snowfall T 1.5  
Since 1 July snowfall 16.2 7.3  
Snow Depth 1.00 in    
Sea Level Pressure  
Sea Level Pressure 30.07 in    
Wind  
Wind Speed 7 mph (WSW)    
Max Wind Speed 17 mph    
Max Gust Speed 23 mph    
Visibility 9 miles    
Events      
T = Trace of Precipitation, MM = Missing Value Source: NWS Daily Summary

Daily Weather History Graph

Daily Weather History Graph

Search for Another Location

Airport or City:

Trip Planner

Search our weather history database for the weather conditions in past years. The results will help you decide how hot, cold, wet, or windy it might be!

Date:

Astronomy

Jan. 06, 2013 Rise Set
Actual Time 7:17 AM EST 4:39 PM EST
Civil Twilight 6:47 AM EST 5:10 PM EST
Nautical Twilight 6:12 AM EST 5:44 PM EST
Astronomical Twilight 5:39 AM EST 6:17 PM EST
Moon 1:27 AM EST (1/6) 12:05 PM EST (1/6)
Length of Visible Light 10h 23m
Length of Day
9h 21m
Waning Crescent, 33% of the Moon is Illuminated
Jan 6
Waning Crescent
Jan 11
New
Jan 18
First Quarter
Jan 26
Full
Feb 3
Last Quarter

Hourly Weather History & Observations

Time (EST) Temp. Windchill Dew Point Humidity Pressure Visibility Wind Dir Wind Speed Gust Speed Precip Events Conditions
12:52 AM 32.0 °F 28.7 °F 24.1 °F 73% 30.22 in 10.0 mi NW 3.5 mph - N/A   Scattered Clouds
1:52 AM 32.0 °F - 24.1 °F 73% 30.22 in 10.0 mi Calm Calm - N/A   Mostly Cloudy
2:52 AM 30.9 °F - 25.0 °F 79% 30.19 in 10.0 mi Calm Calm - N/A   Overcast
3:52 AM 33.1 °F 27.7 °F 26.1 °F 75% 30.16 in 10.0 mi NNW 5.8 mph - N/A   Overcast
4:52 AM 33.1 °F - 26.1 °F 75% 30.14 in 10.0 mi Calm Calm - N/A   Overcast
5:52 AM 36.0 °F 26.7 °F 27.0 °F 70% 30.12 in 9.0 mi SW 15.0 mph 20.7 mph N/A   Overcast
6:52 AM 36.0 °F 26.7 °F 28.9 °F 76% 30.12 in 8.0 mi SW 15.0 mph - N/A   Overcast
7:22 AM 35.6 °F 27.5 °F 30.2 °F 81% 30.12 in 8.0 mi SW 11.5 mph - N/A   Overcast
7:52 AM 36.0 °F 28.0 °F 30.9 °F 82% 30.12 in 7.0 mi SW 11.5 mph - N/A   Overcast
8:52 AM 36.0 °F 28.0 °F 32.0 °F 86% 30.11 in 7.0 mi SW 11.5 mph - N/A   Overcast
9:52 AM 37.0 °F 28.9 °F 33.1 °F 86% 30.09 in 6.0 mi SW 12.7 mph 19.6 mph N/A   Overcast
10:16 AM 37.4 °F 29.8 °F 33.8 °F 87% 30.08 in 10.0 mi WSW 11.5 mph 18.4 mph N/A   Scattered Clouds
10:52 AM 39.0 °F 31.8 °F 33.1 °F 79% 30.06 in 9.0 mi WSW 11.5 mph - N/A   Overcast
11:52 AM 39.9 °F 32.5 °F 33.1 °F 77% 30.02 in 8.0 mi SW 12.7 mph - N/A   Clear
12:52 PM 41.0 °F 33.5 °F 33.1 °F 73% 30.00 in 8.0 mi SW 13.8 mph - N/A   Clear
1:52 PM 42.1 °F 35.2 °F 33.1 °F 70% 29.99 in 8.0 mi SW 12.7 mph - N/A   Clear
2:52 PM 43.0 °F 37.7 °F 33.1 °F 68% 29.97 in 8.0 mi SW 9.2 mph - N/A   Clear
3:52 PM 42.1 °F 37.7 °F 34.0 °F 73% 29.97 in 8.0 mi SW 6.9 mph - N/A   Clear
4:52 PM 39.9 °F - 33.1 °F 77% 29.97 in 7.0 mi Calm Calm - N/A   Clear
5:52 PM 39.0 °F - 33.1 °F 79% 29.98 in 8.0 mi Calm Calm - N/A   Clear
6:52 PM 39.9 °F 35.1 °F 35.1 °F 83% 29.99 in 8.0 mi SW 6.9 mph - N/A   Partly Cloudy
7:52 PM 37.9 °F 34.4 °F 33.1 °F 83% 30.00 in 9.0 mi WSW 4.6 mph - N/A   Clear
8:52 PM 39.0 °F 35.7 °F 28.9 °F 67% 30.00 in 10.0 mi WSW 4.6 mph - N/A   Mostly Cloudy
9:52 PM 36.0 °F 32.1 °F 28.0 °F 73% 30.01 in 10.0 mi West 4.6 mph - N/A   Clear
10:52 PM 37.0 °F 33.3 °F 28.0 °F 70% 30.02 in 10.0 mi WSW 4.6 mph - N/A   Clear
11:52 PM 36.0 °F 32.1 °F 28.0 °F 73% 30.02 in 10.0 mi West 4.6 mph - N/A   Clear